SL-8 R/B

Satellite information

Favourite Embed

Satellite Type and Status

ROCKET BODYIN ORBIT

Key statistics

Satellite SL-8 R/B at a glance.

Uptime

18226

Days in orbit

Revolutions

≈ 13.8

Per day

Orbit

LEO

Low Earth Orbit

Inclination

83.0

Latest

Satellite identification and parameters

Extended collection of information and parameters for SL-8 R/B.

Object identification

Identified? True

Debris? False

Object name: SL-8 R/B

International designator: 1976-005B

Object number (NORAD): 8597

Object ID (CCSDS): 8597

Country: COMMONWEALTH OF INDEPENDENT STATES (CIS)

Current information (Y/N): Y

RCS size: LARGE

Orbital parameters

Period: 104.691 minutes

Inclination: 82.9721 deg

SMA: 7358.111 km

Apoapsis: 997.902 km

Periapsis: 962.049 km

RAAN: 297.1677 deg

Eccentricy: 0.00243633

Argument of periapsis: 206.4107 deg

Mean anomaly: 262.7027 deg

Mean motion: 13.75476855 rev/day

Mean motion (dot): 0.00000076 rev/day2

B* drag term: 0.000063078812 1/REarth

Two-line elements (TLE)

Creation date: Dec. 12, 2025, 10:14 a.m.

Reference frame: TEME

Reference center: EARTH

Epoch: Dec. 12, 2025, 7:42 a.m. UTC

TLE line 0: 0 SL-8 R/B

TLE line 1: 1 08597U 76005B 25346.32110424 .00000076 00000-0 63079-4 0 9996

TLE line 2: 2 08597 82.9721 297.1677 0024363 206.4107 262.7027 13.75476855502911

Live tracking on map

Real-time ground track for satellite SL-8 R/B.

In-orbit conjunctions

A list of the most updated potential collisions computed for object SL-8 R/B.

Target Orbit TCA Probability of collision Miss distance Type
SCOUT B DEB LEO 2025-07-02 08:19:07 0.0001350568 772.0 (m) DEBRIS
SL-16 DEB SSO 2024-10-10 02:19:46 0.0005689698 127.0 (m) DEBRIS

Associated space launch

Navigation satellite providing location information for the Tsiklon-B navigation system

SL-8 R/B was lifted into orbit during the mission ‘Kosmos-3M | Parus 5’, on board a Kosmos-3M space rocket.

The launch took place on Jan. 20, 1976, 5:07 p.m. from 132/1 (132L).

For more information about the launch, click the button.

Launch to space Kosmos-3M | Parus 5
Kosmos-3M | Parus 5

Agency: N/A

Status: Launch Successful

Launch date: Jan. 20, 1976, 5:07 p.m. UTC

Rocket: Kosmos-3M

Launch pad: 132/1 (132L)

Location: Plesetsk Cosmodrome, Russian Federation

...

Latest news about this satellite

There are no fresh news available about this satellite. Check back as we update our databases every day.


Newsletter sign-up

Weekly statistics, charts and insights to help you stay on top of the space industry.